Location: Napoli
(40.8639°N, 14.2562°E)
Time: 15:07:48
(UTC+02:00)

ISS - Pass Details

Date: 27 May 2025
Orbit: 415 x 417 km, 51.6° (Epoch: 15 June)

Event Time Altitude Azimuth Distance (km) Brightness Sun altitude
Rises 22:19:37 0° 289° (WNW) 2,356 1.1 -17.4°
Reaches altitude 10° 22:22:29 10° 262° (W) 1,487 -0.6 -17.7°
Maximum altitude 22:24:15 14° 230° (SW) 1,279 -1.3 -17.9°
Enters shadow 22:24:45 13° 220° (SW) 1,296 -1.4 -18.0°
